Location: Dumpton Point
(51.3500°N, 1.4433°E)
Time: 05:24:59
(UTC+00:00)

Altair - Pass Details

Date: 01 October 2022
Orbit: 1501 x 1682 km, 47.2° (Epoch: 04 December)

Event Time Altitude Azimuth Distance (km) Brightness Sun altitude
Rises 07:24:20 0° 253° (WSW) 4,827 9.6 12.7°
Reaches altitude 10° 07:27:25 10° 251° (WSW) 3,864 9.2 13.2°
Maximum altitude 07:37:15 69° 171° (S) 1,763 8.3 14.6°
Drops below altitude 10° 07:47:19 10° 91° (E) 3,948 11.0 16.0°
Sets 07:50:30 0° 90° (E) 4,936 11.3 16.4°
